TimeCST,TemperatureF,Dew PointF,Humidity,Sea Level PressureIn,VisibilityMPH,Wind Direction,Wind SpeedMPH,Gust SpeedMPH,PrecipitationIn,Events,Conditions,WindDirDegrees,DateUTC
12:53 AM,-11.0,-18.0,71,30.29,10.0,SW,9.2,-,N/A,,Clear,230,2014-01-08 06:53:00
1:53 AM,-11.9,-18.0,74,30.31,10.0,SW,6.9,-,N/A,,Mostly Cloudy,230,2014-01-08 07:53:00
2:53 AM,-11.0,-17.0,75,30.33,10.0,WSW,9.2,-,N/A,,Overcast,240,2014-01-08 08:53:00
3:53 AM,-11.0,-17.0,75,30.34,10.0,WSW,8.1,-,N/A,,Mostly Cloudy,240,2014-01-08 09:53:00
4:53 AM,-14.1,-18.9,79,30.35,10.0,WSW,9.2,-,N/A,,Clear,250,2014-01-08 10:53:00
5:53 AM,-15.0,-18.9,82,30.36,10.0,West,5.8,-,N/A,,Clear,270,2014-01-08 11:53:00
6:53 AM,-16.1,-20.0,82,30.37,10.0,West,8.1,-,N/A,,Clear,260,2014-01-08 12:53:00
7:53 AM,-15.0,-20.0,78,30.40,10.0,West,9.2,-,N/A,,Clear,260,2014-01-08 13:53:00
8:53 AM,-11.9,-18.0,74,30.43,10.0,WSW,8.1,-,N/A,,Clear,240,2014-01-08 14:53:00
9:53 AM,-9.9,-17.0,71,30.45,10.0,SW,8.1,-,N/A,,Clear,230,2014-01-08 15:53:00
10:53 AM,-7.1,-15.0,68,30.45,10.0,SW,9.2,-,N/A,,Clear,230,2014-01-08 16:53:00
11:53 AM,-5.1,-15.0,62,30.45,10.0,WSW,11.5,-,N/A,,Clear,240,2014-01-08 17:53:00
12:53 PM,-2.9,-14.1,59,30.45,10.0,WSW,10.4,-,N/A,,Clear,250,2014-01-08 18:53:00
1:53 PM,-0.0,-14.1,52,30.45,10.0,WSW,8.1,-,N/A,,Clear,240,2014-01-08 19:53:00
2:53 PM,1.9,-13.0,50,30.46,10.0,WSW,10.4,-,N/A,,Clear,240,2014-01-08 20:53:00
3:53 PM,1.0,-14.1,49,30.48,10.0,WSW,8.1,-,N/A,,Clear,250,2014-01-08 21:53:00
4:53 PM,-2.0,-14.1,57,30.49,10.0,SW,8.1,-,N/A,,Clear,230,2014-01-08 22:53:00
5:53 PM,-2.9,-15.0,56,30.51,10.0,SW,8.1,-,N/A,,Clear,220,2014-01-08 23:53:00
6:53 PM,-5.1,-16.1,59,30.51,10.0,WSW,6.9,-,N/A,,Clear,240,2014-01-09 00:53:00
7:53 PM,-7.1,-17.0,62,30.53,10.0,WSW,8.1,-,N/A,,Clear,240,2014-01-09 01:53:00
8:53 PM,-8.0,-17.0,65,30.52,10.0,WSW,6.9,-,N/A,,Clear,240,2014-01-09 02:53:00
9:53 PM,-9.9,-17.0,71,30.53,10.0,SSW,6.9,-,N/A,,Clear,210,2014-01-09 03:53:00
10:53 PM,-11.9,-18.0,74,30.53,10.0,SSW,5.8,-,N/A,,Clear,210,2014-01-09 04:53:00
11:53 PM,-9.0,-17.0,68,30.51,10.0,SW,5.8,-,N/A,,Clear,230,2014-01-09 05:53:00